Regional Weather Roundup
Issued by NWS Green Bay, WI

Home | Current Version | Previous Version | Text Only | Print | Product List | Glossary On
Versions: 1 2 3 4 5 6 7 8 9 10 11 12 13 14 15 16 17 18 19 20 21 22 23 24 25 26 27 28 29 30 31 32 33 34 35 36 37 38 39 40 41 42 43 44 45 46 47 48 49 50
000
ASUS43 KGRB 260559
RWRGRB

NORTH-CENTRAL AND NORTHEAST WISCONSIN REGIONAL WEATHER ROUNDUP
NATIONAL WEATHER SERVICE GREEN BAY WI
1200 AM CST FRI DEC 26 2014

WIZ005-009-010>012-018-019-260700-
NORTH CENTRAL WISCONSIN

CITY           SKY/WX    TMP DP  RH WIND       PRES   REMARKS
IRONWOOD       CLOUDY    30  28  93 S3        29.87R
MANITOWISH WTR NOT AVBL
ARBOR VITAE    NOT AVBL
EAGLE RIVER    NOT AVBL
LAND O LAKES   NOT AVBL
RHINELANDER    CLOUDY    28  27  96 CALM      29.87F FOG
PHILLIPS       NOT AVBL
ANTIGO         NOT AVBL
TOMAHAWK       NOT AVBL
MERRILL        NOT AVBL
$$

WIZ013-073-260700-
NORTHEAST WISCONSIN

CITY           SKY/WX    TMP DP  RH WIND       PRES   REMARKS
IRON MOUNTAIN  CLOUDY    31  30  96 CALM      29.90S
MARINETTE      PTCLDY    30  27  86 CALM      29.93S
$$

WIZ017-030-035>037-045-260700-
CENTRAL WISCONSIN

CITY           SKY/WX    TMP DP  RH WIND       PRES   REMARKS
MEDFORD        NOT AVBL
WAUSAU         PTCLDY    29  27  92 E5        29.87F
MOSINEE        NOT AVBL
MARSHFIELD     PTCLDY    28  26  92 E5        29.87F FOG
WISC RAPIDS    PTCLDY    27  25  92 CALM      29.89F FOG
STEVENS POINT  NOT AVBL
WAUPACA        NOT AVBL
SHAWANO        NOT AVBL
CLINTONVILLE   PTCLDY    28  28 100 CALM      29.92S FOG
$$

WIZ038-039-048-051-260700-
FOX VALLEY

CITY           SKY/WX    TMP DP  RH WIND       PRES   REMARKS
NWS GREEN BAY  MOCLDY    31  29  92 CALM      29.94S FOG
APPLETON       NOT AVBL
OSHKOSH        CLOUDY    36  32  85 S10       29.92S
FOND DU LAC    CLOUDY    38  32  79 S10       29.93S
$$

WIZ022-050-052-260700-
EAST CENTRAL WISCONSIN

CITY           SKY/WX    TMP DP  RH WIND       PRES   REMARKS
STURGEON BAY   PTCLDY    34  30  86 S6        29.96S
MANITOWOC      NOT AVBL
SHEBOYGAN      CLOUDY    37  32  82 S7        29.95S
$$

LMZ563-521-522-541>543-260700-
LAKESHORE

STATION/POSITION TIME  TEMP    WIND        PRES    VSBY  WAVE
                       AIR SEA DIR/SP/G                  HT/PER
                 (UTC) (F)     (DEG/KT/KT) (MB)    (MI)  (FT/S)
SHEBOYGAN LKSHOR 0500   39 37  210/ 13/ 15 1015.1R
KEWAUNEE LKSHORE 0500   34      CALM  /  3 1013.3S
ALGOMA MARINA    0500             CALM       N/A
NORTHPORT PIER   0500   32        CALM     1013.9F
SISTER BAY LKSHO 0500             CALM       N/A
CHAMBERS ISLAND  0500   33      CALM  /  2 1014.2S
MENOMINEE LKSHOR 0500   33     180/  1/  2 1014.4F
$$


USA.gov is the U.S. government's official web portal to all federal, state and local government web resources and services.